Weather History for Wahoo, NE

Change the Weather History Date:

Friday, January 6, 2012

  Actual Average Record
Temperature  
Mean Temperature 43 °F -  
Max Temperature 51 °F 30 °F 51 °F (2012)
Min Temperature 35 °F 9 °F -16 °F (1971)
Degree Days  
Heating Degree Days 22    
Moisture  
Dew Point 25 °F    
Average Humidity 54    
Maximum Humidity 75    
Minimum Humidity 31    
Precipitation  
Precipitation 0.00 in - - ()
Sea Level Pressure  
Sea Level Pressure 29.84 in    
Wind  
Wind Speed 10 mph (NNW)    
Max Wind Speed 24 mph    
Max Gust Speed 26 mph    
Visibility 10 miles    
Events      
Averages and records for this station are not official NWS values.
T = Trace of Precipitation, MM = Missing Value Source: NWS Daily Summary

Daily Weather History Graph

Daily Weather History Graph

Search for Another Location

Airport:

Trip Planner

Search our weather history database for the weather conditions in past years. The results will help you decide how hot, cold, wet, or windy it might be!

Date:

Astronomy

Jan. 06, 2012 Rise Set
Actual Time 7:52 AM CST 5:12 PM CST
Civil Twilight 7:21 AM CST 5:43 PM CST
Nautical Twilight 6:46 AM CST 6:17 PM CST
Astronomical Twilight 6:13 AM CST 6:51 PM CST
Moon 3:03 PM CST (1/6) 5:33 AM CST (1/6)
Length of Visible Light 10h 21m
Length of Day
9h 20m
Waxing Gibbous, 93% of the Moon is Illuminated
Jan 6
Waxing Gibbous
Jan 9
Full
Jan 16
Last Quarter
Jan 23
New
Jan 30
First Quarter

Hourly Weather History & Observations

Time (CST) Temp. Windchill Dew Point Humidity Pressure Visibility Wind Dir Wind Speed Gust Speed Precip Events Conditions
12:15 AM 44.6 °F 43.1 °F 28.9 °F 54% 29.68 in 10.0 mi SW 3.5 mph - N/A   Clear
12:35 AM 45.3 °F 43.0 °F 28.4 °F 52% 29.68 in 10.0 mi WSW 4.6 mph - N/A   Clear
12:55 AM 42.1 °F 37.7 °F 28.2 °F 58% 29.68 in 10.0 mi SW 6.9 mph - N/A   Clear
1:15 AM 42.4 °F 38.8 °F 28.2 °F 57% 29.67 in 10.0 mi SW 5.8 mph - N/A   Clear
1:35 AM 40.8 °F 37.8 °F 27.9 °F 60% 29.67 in 10.0 mi WSW 4.6 mph - N/A   Clear
2:15 AM 39.2 °F 35.0 °F 27.3 °F 62% 29.68 in 10.0 mi West 5.8 mph - N/A   Clear
2:35 AM 38.7 °F 36.3 °F 28.4 °F 67% 29.69 in 10.0 mi WNW 3.5 mph - N/A   Clear
2:55 AM 39.6 °F 36.3 °F 26.6 °F 60% 29.69 in 10.0 mi NW 4.6 mph - N/A   Clear
3:15 AM 36.0 °F 32.1 °F 25.9 °F 67% 29.70 in 10.0 mi NNW 4.6 mph - N/A   Clear
3:35 AM 39.2 °F 33.6 °F 27.9 °F 64% 29.70 in 10.0 mi NNW 8.1 mph - N/A   Clear
3:55 AM 37.8 °F 32.5 °F 27.3 °F 66% 29.70 in 10.0 mi NNW 6.9 mph - N/A   Clear
4:15 AM 38.7 °F 32.9 °F 27.7 °F 65% 29.71 in 10.0 mi NNW 8.1 mph - N/A   Clear
4:35 AM 36.3 °F 30.1 °F 27.0 °F 69% 29.71 in 10.0 mi NNW 8.1 mph - N/A   Clear
4:55 AM 36.9 °F 29.1 °F 27.9 °F 70% 29.72 in 10.0 mi NNW 11.5 mph - N/A   Clear
5:15 AM 36.1 °F 28.7 °F 27.9 °F 72% 29.72 in 10.0 mi NNW 10.4 mph - N/A   Clear
5:35 AM 36.7 °F 28.9 °F 28.4 °F 72% 29.73 in 10.0 mi NNW 11.5 mph - N/A   Clear
5:55 AM 35.6 °F 27.5 °F 28.2 °F 75% 29.74 in 10.0 mi NNW 11.5 mph - N/A   Clear
6:15 AM 36.9 °F 28.2 °F 28.8 °F 72% 29.75 in 10.0 mi NNW 13.8 mph - N/A   Clear
6:35 AM 36.7 °F 27.6 °F 28.9 °F 74% 29.77 in 10.0 mi NNW 15.0 mph - N/A   Clear
6:55 AM 37.8 °F 29.4 °F 28.9 °F 71% 29.77 in 10.0 mi NNW 13.8 mph - N/A   Clear
7:15 AM 37.6 °F 28.4 °F 29.1 °F 72% 29.77 in 10.0 mi NNW 16.1 mph - N/A   Clear
7:35 AM 37.6 °F 29.1 °F 28.4 °F 69% 29.79 in 10.0 mi NNW 13.8 mph - N/A   Clear
7:55 AM 37.4 °F 28.5 °F 28.2 °F 69% 29.80 in 10.0 mi NNW 15.0 mph - N/A   Clear
8:15 AM 37.4 °F 28.5 °F 27.9 °F 68% 29.81 in 10.0 mi NNW 15.0 mph - N/A   Clear
8:35 AM 38.3 °F 29.7 °F 27.7 °F 66% 29.83 in 10.0 mi NNW 15.0 mph - N/A   Clear
8:55 AM 38.7 °F 29.8 °F 27.5 °F 64% 29.84 in 10.0 mi NNW 16.1 mph - N/A   Clear
9:15 AM 39.4 °F 29.8 °F 27.5 °F 62% 29.85 in 10.0 mi NNW 19.6 mph - N/A   Clear
9:35 AM 40.6 °F 31.7 °F 27.7 °F 60% 29.86 in 10.0 mi NNW 18.4 mph - N/A   Clear
9:55 AM 44.1 °F 35.7 °F 28.8 °F 55% 29.88 in 10.0 mi North 20.7 mph - N/A   Clear
10:15 AM 46.4 °F 38.1 °F 28.8 °F 50% 29.89 in 10.0 mi North 24.2 mph - N/A   Clear
10:35 AM 45.1 °F 37.6 °F 27.5 °F 50% 29.90 in 10.0 mi North 18.4 mph 26.5 mph N/A   Clear
10:55 AM 45.1 °F 37.6 °F 27.5 °F 50% 29.91 in 10.0 mi NNW 18.4 mph - N/A   Clear
11:15 AM 46.0 °F 38.8 °F 27.7 °F 49% 29.92 in 10.0 mi North 18.4 mph - N/A   Clear
11:35 AM 46.4 °F 39.5 °F 27.3 °F 47% 29.92 in 10.0 mi North 17.3 mph - N/A   Clear
12:15 PM 47.5 °F - 26.1 °F 43% 29.91 in 10.0 mi NNW 20.7 mph - N/A   Clear
12:35 PM 47.8 °F - 25.5 °F 42% 29.91 in 10.0 mi North 18.4 mph - N/A   Clear
12:55 PM 48.4 °F - 25.3 °F 41% 29.90 in 10.0 mi NNW 18.4 mph - N/A   Clear
1:15 PM 48.4 °F - 24.1 °F 39% 29.90 in 10.0 mi NNW 18.4 mph - N/A   Clear
1:35 PM 48.4 °F - 23.7 °F 38% 29.90 in 10.0 mi North 16.1 mph - N/A   Clear
1:55 PM 48.9 °F - 23.9 °F 38% 29.90 in 10.0 mi NNW 15.0 mph - N/A   Clear
2:15 PM 50.9 °F - 23.0 °F 34% 29.91 in 10.0 mi NNW 15.0 mph 21.9 mph N/A   Clear
2:35 PM 50.9 °F - 22.6 °F 33% 29.92 in 10.0 mi NNW 13.8 mph - N/A   Clear
2:55 PM 51.8 °F - 22.1 °F 31% 29.92 in 10.0 mi NNW 16.1 mph - N/A   Clear
3:15 PM 50.9 °F - 22.6 °F 33% 29.93 in 10.0 mi NNW 15.0 mph 24.2 mph N/A   Clear
3:35 PM 50.2 °F - 22.8 °F 34% 29.94 in 10.0 mi NNW 15.0 mph 24.2 mph N/A   Clear
4:15 PM 48.7 °F - 22.3 °F 35% 29.95 in 10.0 mi NW 8.1 mph - N/A   Scattered Clouds
4:55 PM 48.2 °F - 20.1 °F 33% 29.96 in 10.0 mi NNW 12.7 mph 20.7 mph N/A   Scattered Clouds
5:35 PM 45.3 °F 39.3 °F 18.7 °F 35% 29.97 in 10.0 mi NNW 12.7 mph - N/A   Mostly Cloudy
5:55 PM 43.7 °F 37.3 °F 18.7 °F 37% 29.99 in 10.0 mi NW 12.7 mph - N/A   Clear
6:15 PM 40.8 °F 34.5 °F 19.2 °F 42% 30.00 in 10.0 mi NW 10.4 mph - N/A   Clear
6:35 PM 38.8 °F 32.6 °F 19.6 °F 46% 30.00 in 10.0 mi NW 9.2 mph - N/A   Clear
6:55 PM 39.4 °F 32.3 °F 19.8 °F 45% 30.00 in 10.0 mi NW 11.5 mph - N/A   Clear
7:15 PM 39.0 °F 31.8 °F 19.9 °F 46% 30.01 in 10.0 mi NW 11.5 mph - N/A   Clear
7:35 PM 39.0 °F 31.8 °F 19.9 °F 46% 30.02 in 10.0 mi NW 11.5 mph - N/A   Clear
7:55 PM 38.7 °F 31.8 °F 19.9 °F 47% 30.02 in 10.0 mi NW 10.4 mph - N/A   Clear
8:15 PM 37.6 °F 30.5 °F 19.8 °F 49% 30.03 in 10.0 mi NW 10.4 mph - N/A   Clear
8:35 PM 36.0 °F 29.0 °F 19.6 °F 51% 30.03 in 10.0 mi NW 9.2 mph - N/A   Clear
8:55 PM 36.1 °F 28.7 °F 19.2 °F 50% 30.03 in 10.0 mi NW 10.4 mph - N/A   Clear
9:15 PM 35.8 °F 28.3 °F 19.4 °F 51% 30.04 in 10.0 mi NW 10.4 mph - N/A   Clear
9:35 PM 34.9 °F 27.7 °F 19.4 °F 53% 30.04 in 10.0 mi NW 9.2 mph - N/A   Clear
9:55 PM 33.8 °F 27.0 °F 19.4 °F 56% 30.04 in 10.0 mi NW 8.1 mph - N/A   Clear
10:15 PM 34.3 °F 27.0 °F 19.2 °F 54% 30.05 in 10.0 mi NW 9.2 mph - N/A   Clear
10:35 PM 33.4 °F 25.9 °F 19.9 °F 58% 30.05 in 10.0 mi NW 9.2 mph - N/A   Clear
10:55 PM 33.8 °F 25.3 °F 19.4 °F 56% 30.06 in 10.0 mi WNW 11.5 mph - N/A   Clear
11:15 PM 32.4 °F 24.0 °F 19.4 °F 59% 30.06 in 10.0 mi WNW 10.4 mph - N/A   Clear
11:35 PM 32.4 °F 23.5 °F 19.4 °F 59% 30.06 in 10.0 mi WNW 11.5 mph - N/A   Clear
11:55 PM 32.0 °F 24.2 °F 19.8 °F 61% 30.06 in 10.0 mi NW 9.2 mph - N/A   Clear